Regional Weather Roundup
Issued by NWS Bismarck, ND

Home | Current Version | Previous Version | Text Only | Print | Product List | Glossary On
Versions: 1 2 3 4 5 6 7 8 9 10 11 12 13 14 15 16 17 18 19 20 21 22 23 24 25 26 27 28 29 30 31 32 33 34 35 36 37 38 39 40 41 42 43 44 45 46 47 48 49 50
000
ASUS43 KBIS 310901
RWRBIS

NWR BROADCAST TEXT
NATIONAL WEATHER SERVICE BISMARCK ND
300 AM CST SAT JAN 31 2015

NOTE: "FAIR" INDICATES FEW OR NO CLOUDS BELOW 12,000 FEET WITH NO
SIGNIFICANT WEATHER AND/OR OBSTRUCTIONS TO VISIBILITY.


CITY           SKY/WX    TMP DP  RH WIND       PRES   REMARKS
WILLISTON      CLOUDY    24  20  84 E10       30.20F WCI  14
MINOT          CLOUDY    18  14  84 N14       30.23S WCI   4
MINOT AFB      MIX PCPN  18  18  98 NE14      30.24S WCI   4
BISMARCK       CLOUDY    23  22  96 N10       30.22R WCI  12
DICKINSON      FOG       24  22  91 NE9       30.12R VSB 1/2 WCI  14
GARRISON         N/A     21  18  88 NE7       30.21R WCI  12
HETTINGER ARPT CLEAR     22  19  89 E3        30.11F
JAMESTOWN      CLOUDY    22  17  81 N14       30.20R WCI   9
CARRINGTON     CLOUDY    18  18 100 MISG      30.22R
CROSBY         CLOUDY    18  16  93 E16       30.26R WCI   3
HAZEN          CLOUDY    23  18  80 E10       30.23R WCI  12
LINTON         CLOUDY    23  23 100 NE7       30.20R FOG     WCI  15
OAKES            N/A     23  23 100 N12       30.20S WCI  12
WATFORD CITY   CLOUDY    23  23 100 E12G17    30.17S WCI  12
$$

CITY           SKY/WX    TMP DP  RH WIND       PRES   REMARKS
GRAND FORKS    FLURRIES  15  10  80 N24       30.27R WCI  -4
GRAND FORKS AF FLURRIES  14   8  77 NE18G26   30.28R WCI  -3
DEVILS LAKE    CLOUDY    12   7  79 N18       30.25R WCI  -5
FARGO          CLOUDY    19  14  81 N15       30.23R WCI   5
GWINNER        CLOUDY    25  23  93 N14       30.22R WCI  13
$$

CITY           SKY/WX    TMP DP  RH WIND       PRES   REMARKS
ABERDEEN       CLOUDY    26  23  88 NE13      30.19R WCI  15
MOBRIDGE       CLOUDY    27  25  92 N12       30.13S FOG     WCI  17
BUFFALO          N/A     20  17  88 S6        30.01S WCI  12
RAPID CITY     CLOUDY    30  22  72 NW5       30.07S
GLASGOW        CLOUDY    27  24  89 E23       30.08R FOG     WCI  12
SIDNEY         CLOUDY    25  21  86 NE13      30.18F WCI  13
WOLF POINT     CLOUDY    24  22  91 E21       30.15S FOG     WCI   9
GLENDIVE       CLOUDY    25  23  93 NE16      30.10S VSB 3/4 WCI  12
MILES CITY     PTCLDY    25  22  88 NE5       30.03F WCI  19
BAKER          CLEAR     23  20  88 SE7       30.07S WCI  15
$$

CITY           SKY/WX    TMP DP  RH WIND       PRES   REMARKS
BILLINGS       PTCLDY    30  25  81 SW14      29.97F WCI  19
GREAT FALLS    CLOUDY    34  19  54 W13G30    29.99R
$$



USA.gov is the U.S. government's official web portal to all federal, state and local government web resources and services.